This is the latest recevied weather packets stored in our database for station/object W2OBX. If no packets are shown the sender has not sent any weather packets the latest 10 day(s).
| Time | Temp. | Humidity | Pressure | Rain* | Wind** | Luminosity | Snow |
|---|---|---|---|---|---|---|---|
| 1777527448 | 15.56° C | 85% | 1013.6 hPa | 0 mm | - | 0 W/m² | - |
| 1777527142 | 15.56° C | 85% | 1013.5 hPa | 0 mm | - | 0 W/m² | - |
| 1777526839 | 15.56° C | 85% | 1014.1 hPa | 0 mm | - | 0 W/m² | - |
| 1777526533 | 15.56° C | 84% | 1013.8 hPa | 0 mm | - | 0 W/m² | - |
| 1777526229 | 15.56° C | 84% | 1014 hPa | 0 mm | - | 0 W/m² | - |
| 1777525925 | 15.56° C | 85% | 1014.2 hPa | 0 mm | - | 0 W/m² | - |
| 1777525623 | 15.56° C | 84% | 1014.2 hPa | 0 mm | - | 0 W/m² | - |
| 1777525320 | 15.56° C | 82% | 1014.3 hPa | 0 mm | - | 0 W/m² | - |
| 1777525015 | 16.11° C | 81% | 1014.1 hPa | 0 mm | - | 0 W/m² | - |
| 1777524712 | 16.11° C | 82% | 1014.2 hPa | 0 mm | - | 0 W/m² | - |
| 1777524411 | 16.11° C | 83% | 1014.3 hPa | 0 mm | - | 0 W/m² | - |
| 1777524106 | 16.11° C | 80% | 1014.2 hPa | 0 mm | - | 0 W/m² | - |
| 1777523803 | 16.11° C | 79% | 1014 hPa | 0 mm | - | 0 W/m² | - |
| 1777523500 | 16.11° C | 81% | 1014.2 hPa | 0 mm | - | 0 W/m² | - |
| 1777523196 | 16.11° C | 82% | 1014.1 hPa | 0 mm | - | 0 W/m² | - |
| 1777522892 | 16.11° C | 82% | 1014.2 hPa | 0 mm | - | 0 W/m² | - |
| 1777522589 | 16.11° C | 83% | 1014.2 hPa | 0 mm | - | 0 W/m² | - |
| 1777522286 | 16.11° C | 84% | 1014.3 hPa | 0 mm | - | 0 W/m² | - |
| 1777521983 | 16.11° C | 81% | 1014.1 hPa | 0 mm | - | 0 W/m² | - |
| 1777521680 | 16.11° C | 81% | 1013.9 hPa | 0 mm | - | 0 W/m² | - |
| 1777521376 | 16.11° C | 82% | 1014 hPa | 0 mm | - | 0 W/m² | - |
| 1777521073 | 16.11° C | 82% | 1014.2 hPa | 0 mm | - | 0 W/m² | - |
| 1777520771 | 16.11° C | 83% | 1014.2 hPa | 0 mm | - | 0 W/m² | - |
| 1777520467 | 16.11° C | 81% | 1014 hPa | 0 mm | - | 0 W/m² | - |
| 1777520164 | 16.11° C | 82% | 1013.9 hPa | 0 mm | - | 0 W/m² | - |
* Rain latest hour (hover to see other rain measurements)
** Current wind speed in m/s (hover to see current wind gust speed)